FW6767 Weather Reports


Display with metric or nautical units.
time (UTC)temp
F
wind
direction
speed
MPH
gust
MPH
rain 1hr
in
rain 24hr
in
rain mn
in
humidity
%
barometer
mb
20260504173101 78 161 1.0 6.0 0.00 0.00 0.00 38 1017.0
20260504171558 77 130 1.0 5.0 0.00 0.00 0.00 38 1017.1
20260504160103 73 131 0.0 3.0 0.00 0.00 0.00 36 1018.1
20260504081601 46 0 0.0 0.0 0.00 0.00 0.00 85 1017.6
20260504060123 48 0 0.0 0.0 0.00 0.00 0.00 82 1018.1
20260504050114 50 0 0.0 0.0 0.00 0.00 0.00 77 1018.0
20260504044555 51 0 0.0 0.0 0.00 0.00 0.00 77 1017.7
20260504043108 51 0 0.0 0.0 0.00 0.00 0.00 75 1017.6
20260504041557 52 0 0.0 0.0 0.00 0.00 0.00 75 1017.8
20260504040059 52 0 0.0 0.0 0.00 0.00 0.00 72 1017.8
20260504034600 53 0 0.0 0.0 0.00 0.00 0.00 74 1017.8
20260504033059 53 0 0.0 1.0 0.00 0.00 0.00 70 1017.7
20260504031604 54 0 0.0 2.0 0.00 0.00 0.00 70 1017.7
20260504030056 54 0 0.0 0.0 0.00 0.00 0.00 73 1017.6
20260504024557 54 0 0.0 0.0 0.00 0.00 0.00 70 1017.6
20260504023058 54 0 0.0 0.0 0.00 0.00 0.00 76 1017.4
20260504021557 54 0 0.0 0.0 0.00 0.00 0.00 78 1017.4
20260504020058 54 0 0.0 0.0 0.00 0.00 0.00 75 1017.3
20260504014603 55 0 0.0 0.0 0.00 0.00 0.00 72 1017.0
20260504013110 56 0 0.0 0.0 0.00 0.00 0.00 72 1016.8
20260504011555 58 0 0.0 0.0 0.00 0.00 0.00 69 1016.7
20260504010112 59 0 0.0 0.0 0.00 0.00 0.00 66 1016.7
20260504004557 60 0 0.0 0.0 0.00 0.00 0.00 63 1016.5
20260504003056 62 0 0.0 0.0 0.00 0.00 0.00 62 1016.4
20260504001602 63 0 0.0 0.0 0.00 0.00 0.00 56 1016.2
20260504000059 64 0 0.0 0.0 0.00 0.00 0.00 49 1016.2
20260503234554 65 215 0.0 1.0 0.00 0.00 0.00 48 1016.2
20260503233102 65 0 0.0 2.0 0.00 0.00 0.00 47 1016.2
20260503231556 66 0 0.0 3.0 0.00 0.00 0.00 45 1016.1
20260503230056 67 0 1.0 5.0 0.00 0.00 0.00 43 1016.2
20260503224554 68 0 0.0 3.0 0.00 0.00 0.00 42 1016.4
20260503223055 69 200 0.0 4.0 0.00 0.00 0.00 43 1016.3
20260503221600 69 0 0.0 3.0 0.00 0.00 0.00 42 1016.4
20260503220105 69 242 0.0 7.0 0.00 0.00 0.00 42 1016.4
20260503214558 69 0 0.0 3.0 0.00 0.00 0.00 44 1016.5
20260503213057 69 93 0.0 3.0 0.00 0.00 0.00 43 1016.7
20260503211557 69 0 1.0 4.0 0.00 0.00 0.00 43 1017.0
20260503210059 69 310 1.0 9.0 0.00 0.00 0.00 43 1017.0
20260503204607 69 0 1.0 4.0 0.00 0.00 0.00 41 1017.1
20260503203101 69 0 0.0 4.0 0.00 0.00 0.00 42 1017.4
20260503201558 70 172 1.0 6.0 0.00 0.00 0.00 41 1017.8
20260503200057 70 195 1.0 4.0 0.00 0.00 0.00 40 1018.2
20260503194622 71 0 1.0 4.0 0.00 0.00 0.00 39 1018.5
20260503193055 71 249 0.0 6.0 0.00 0.00 0.00 42 1018.8
20260503191602 71 0 2.0 4.0 0.00 0.00 0.00 37 1019.0
20260503190101 73 76 1.0 4.0 0.00 0.00 0.00 38 1019.4
20260503184559 72 128 1.0 6.0 0.00 0.00 0.00 40 1019.6
20260503183105 72 284 0.0 4.0 0.00 0.00 0.00 37 1019.8
20260503181556 70 253 2.0 6.0 0.00 0.00 0.00 35 1019.8
20260503180106 70 346 1.0 5.0 0.00 0.00 0.00 40 1019.9
20260503174555 69 214 1.0 4.0 0.00 0.00 0.00 41 1019.9